Stations météo

réclame
Mon MeteoGroup
Fyvie castle, Grande-Bretagne (99010): Température de l'air & dewpoint: 17.07.2018 12:00:00 - 23.07.2018 12:00:00 (BST)Fyvie castle, Grande-Bretagne (99010): Quantités de précipitations: 17.07.2018 12:00:00 - 23.07.2018 12:00:00 (BST)
Date & Time tt [°C] td [°C] rr [mm]
23.07.2018 12:00:00 23,4 15,1 -
23.07.2018 11:00:00 22,8 14,3 0,0
23.07.2018 10:00:00 22,0 16,8 0,0
23.07.2018 09:00:00 20,3 16,1 0,0
23.07.2018 08:00:00 17,8 15,9 0,0
23.07.2018 07:00:00 15,8 15,3 0,0
23.07.2018 06:00:00 14,4 14,0 0,0
23.07.2018 05:00:00 14,0 13,6 0,0
23.07.2018 04:00:00 14,0 13,3 0,0
23.07.2018 03:00:00 14,9 14,2 0,0
23.07.2018 02:00:00 15,2 14,5 0,0
23.07.2018 01:00:00 15,5 14,5 0,0
23.07.2018 00:00:00 15,8 14,4 0,0
22.07.2018 23:00:00 17,5 14,9 0,0
22.07.2018 22:00:00 19,5 15,4 0,0
22.07.2018 21:00:00 21,1 15,2 0,0
22.07.2018 20:00:00 22,7 15,4 0,0
22.07.2018 19:00:00 23,3 15,2 0,0
22.07.2018 18:00:00 25,2 15,6 0,0
22.07.2018 17:00:00 24,4 15,5 0,0
22.07.2018 16:00:00 25,8 16,1 0,0
22.07.2018 15:00:00 24,0 16,5 0,0
22.07.2018 14:00:00 24,0 16,7 0,0
22.07.2018 13:00:00 24,3 16,9 0,0
22.07.2018 12:00:00 22,7 16,0 0,0
22.07.2018 11:00:00 22,3 16,2 0,0
22.07.2018 10:00:00 22,2 16,0 0,0
22.07.2018 09:00:00 21,8 16,4 0,0
22.07.2018 08:00:00 17,9 17,6 0,0
22.07.2018 07:00:00 14,9 14,7 0,0
22.07.2018 06:00:00 14,3 14,0 0,0
22.07.2018 05:00:00 14,1 13,9 0,0
22.07.2018 04:00:00 13,8 13,4 0,0
22.07.2018 03:00:00 14,1 13,7 0,0
22.07.2018 02:00:00 14,5 14,1 0,0
22.07.2018 01:00:00 14,6 14,1 0,0
22.07.2018 00:00:00 14,7 14,1 0,0
21.07.2018 23:00:00 14,7 14,1 0,0
21.07.2018 22:00:00 14,9 14,1 0,0
21.07.2018 21:00:00 15,0 14,0 0,4
21.07.2018 20:00:00 15,5 14,1 0,0
21.07.2018 19:00:00 16,1 13,9 0,0
21.07.2018 18:00:00 17,0 13,9 0,0
21.07.2018 17:00:00 17,2 14,2 0,0
21.07.2018 16:00:00 17,2 14,3 0,0
21.07.2018 15:00:00 17,2 13,9 0,0
21.07.2018 14:00:00 18,7 14,1 0,0
21.07.2018 13:00:00 16,1 13,5 0,0
21.07.2018 12:00:00 15,7 13,8 0,0
21.07.2018 11:00:00 15,1 14,3 0,2
21.07.2018 10:00:00 14,2 13,4 0,6
21.07.2018 09:00:00 14,1 12,9 0,0
21.07.2018 08:00:00 13,9 13,1 0,0
21.07.2018 07:00:00 13,6 12,9 0,0
21.07.2018 06:00:00 13,5 12,8 0,0
21.07.2018 05:00:00 13,6 12,8 0,0
21.07.2018 04:00:00 13,8 13,2 0,0
21.07.2018 03:00:00 13,8 13,0 0,0
21.07.2018 02:00:00 13,6 13,0 0,0
21.07.2018 01:00:00 13,7 12,8 0,0
21.07.2018 00:00:00 14,0 12,8 0,0
20.07.2018 23:00:00 15,0 12,9 0,0
20.07.2018 22:00:00 16,1 13,9 0,0
20.07.2018 21:00:00 17,1 14,7 0,0
20.07.2018 20:00:00 17,6 14,1 0,0
20.07.2018 19:00:00 18,3 14,4 0,0
20.07.2018 18:00:00 17,7 14,8 0,0
20.07.2018 17:00:00 18,0 13,8 0,0
20.07.2018 16:00:00 17,9 14,5 0,0
20.07.2018 15:00:00 17,3 14,5 0,0
20.07.2018 14:00:00 17,0 14,0 0,0
20.07.2018 13:00:00 15,6 13,9 0,4
20.07.2018 12:00:00 14,9 13,8 1,6
20.07.2018 11:00:00 14,7 13,0 1,0
20.07.2018 10:00:00 14,9 12,5 0,0
20.07.2018 09:00:00 14,8 11,7 0,0
20.07.2018 08:00:00 14,2 11,5 0,0
20.07.2018 07:00:00 12,7 11,4 0,0
20.07.2018 06:00:00 12,0 11,3 0,0
20.07.2018 05:00:00 11,5 10,6 0,0
20.07.2018 04:00:00 11,1 10,2 0,0
20.07.2018 03:00:00 10,7 10,0 0,0
20.07.2018 02:00:00 10,5 9,9 0,0
20.07.2018 01:00:00 9,9 9,2 0,0
20.07.2018 00:00:00 10,5 9,3 0,0
19.07.2018 23:00:00 11,7 9,8 0,0
19.07.2018 22:00:00 13,5 10,0 0,0
19.07.2018 21:00:00 16,5 10,4 0,0
19.07.2018 20:00:00 17,9 10,6 0,0
19.07.2018 19:00:00 18,6 10,6 0,0
19.07.2018 18:00:00 19,3 11,8 0,0
19.07.2018 17:00:00 21,2 12,5 0,0
19.07.2018 16:00:00 20,0 13,3 0,0
19.07.2018 15:00:00 18,7 13,0 0,0
19.07.2018 14:00:00 20,2 10,6 0,0
19.07.2018 13:00:00 22,2 11,5 0,0
19.07.2018 12:00:00 19,9 10,3 0,0
19.07.2018 11:00:00 18,8 9,8 0,0
19.07.2018 10:00:00 17,0 12,7 0,0
19.07.2018 09:00:00 14,1 13,5 0,0
19.07.2018 08:00:00 12,0 11,9 0,0
19.07.2018 07:00:00 10,3 10,3 0,0
19.07.2018 06:00:00 9,2 9,0 0,0
19.07.2018 05:00:00 8,6 8,4 0,0
19.07.2018 04:00:00 8,4 8,1 0,0
19.07.2018 03:00:00 8,3 7,9 0,0
19.07.2018 02:00:00 8,7 8,3 0,0
19.07.2018 01:00:00 8,6 8,0 0,0
19.07.2018 00:00:00 9,4 8,7 0,0
18.07.2018 23:00:00 10,6 9,2 0,0
18.07.2018 22:00:00 12,6 10,4 0,0
18.07.2018 21:00:00 15,2 10,5 0,0
18.07.2018 20:00:00 15,8 10,6 0,0
18.07.2018 19:00:00 16,7 10,7 0,0
18.07.2018 18:00:00 16,8 10,8 0,0
18.07.2018 17:00:00 16,5 10,6 0,0
18.07.2018 16:00:00 17,5 11,4 0,0
18.07.2018 15:00:00 18,1 10,6 0,0
18.07.2018 14:00:00 17,3 9,0 0,0
18.07.2018 13:00:00 17,2 9,9 0,0
18.07.2018 12:00:00 16,1 11,0 0,0
18.07.2018 11:00:00 16,1 9,8 0,0
18.07.2018 10:00:00 15,6 8,7 0,0
18.07.2018 09:00:00 13,9 10,5 0,0
18.07.2018 08:00:00 11,7 11,6 0,0
18.07.2018 07:00:00 11,0 10,9 0,0
18.07.2018 06:00:00 9,6 9,5 0,0
18.07.2018 05:00:00 9,1 8,9 0,0
18.07.2018 04:00:00 8,8 8,4 0,0
18.07.2018 03:00:00 9,5 9,0 0,0
18.07.2018 02:00:00 10,4 10,0 0,0
18.07.2018 01:00:00 11,0 10,4 0,0
18.07.2018 00:00:00 12,1 11,7 0,0
17.07.2018 23:00:00 12,3 11,6 0,0
17.07.2018 22:00:00 12,9 12,0 0,0
17.07.2018 21:00:00 13,5 12,4 0,0
17.07.2018 20:00:00 13,7 12,5 0,0
17.07.2018 19:00:00 13,7 13,0 0,0
17.07.2018 18:00:00 13,0 11,5 1,2
17.07.2018 17:00:00 15,6 13,0 0,0
17.07.2018 16:00:00 15,6 12,7 0,0
17.07.2018 15:00:00 15,0 13,0 0,4
17.07.2018 14:00:00 14,6 12,5 1,8
17.07.2018 13:00:00 15,7 12,1 0,4
17.07.2018 12:00:00 17,2 9,9 0,0

tt = Température de l'air
td = dewpoint
rr = Quantités de précipitations

stations d'obs. à proximité